WetterOnline ( https://www.wetteronline.de )

Wetter aktuell Rundsmühlhof

Aktuelles Wetter: Mühlacker (245m)

6-stündlich | Neueste Meldungen
Ortszeit Temperatur Wetter
Fr, 14.05. 20:00 13.0° C leicht bewölkt
Fr, 14.05. 14:00 17.3° C leicht bewölkt
Fr, 14.05. 8:00 8.6° C wolkenlos
Fr, 14.05. 2:00 3.8° C bedeckt
Do, 13.05. 20:00 12.3° C bedeckt
Do, 13.05. 14:00 15.1° C bewölkt
Do, 13.05. 8:00 9.6° C bewölkt
Do, 13.05. 2:00 7.6° C bedeckt
Ortszeit Temperatur Wetter
Fr, 14.05. 23:00 9.3° C bedeckt
Fr, 14.05. 22:50 9.3° C bedeckt
Fr, 14.05. 22:40 8.9° C bedeckt
Fr, 14.05. 22:30 9.0° C bewölkt
Fr, 14.05. 22:20 9.0° C bewölkt
Fr, 14.05. 22:10 9.1° C bewölkt
Fr, 14.05. 22:00 10.7° C bewölkt
Fr, 14.05. 21:30 11.7° C bewölkt
Fr, 14.05. 21:00 11.5° C bedeckt
Fr, 14.05. 20:30 12.1° C bedeckt
Fr, 14.05. 20:00 13.0° C leicht bewölkt
Ortszeit Relative Feuchte Sichtweite
Fr, 14.05. 20:00 70% 70 km
Fr, 14.05. 14:00 50% 70 km
Fr, 14.05. 8:00 87% 30 km
Fr, 14.05. 2:00 99% 40 km
Do, 13.05. 20:00 72% 70 km
Do, 13.05. 14:00 63% 55 km
Do, 13.05. 8:00 90% 18 km
Do, 13.05. 2:00 99% 22 km
Ortszeit Relative Feuchte Sichtweite
Fr, 14.05. 23:00 88% 70 km
Fr, 14.05. 22:50 88% -
Fr, 14.05. 22:40 90% -
Fr, 14.05. 22:30 90% 70 km
Fr, 14.05. 22:20 90% -
Fr, 14.05. 22:10 87% -
Fr, 14.05. 22:00 82% 70 km
Fr, 14.05. 21:30 74% 70 km
Fr, 14.05. 21:00 78% 70 km
Fr, 14.05. 20:30 75% 70 km
Fr, 14.05. 20:00 70% 70 km
Ortszeit Niederschlagsmenge Niederschlagsart
Fr, 14.05. 20:00 0.1 l/m2 in 12 Std. Regen
Fr, 14.05. 14:00 0.0 l/m2 in 6 Std. -
Fr, 14.05. 8:00 0.0 l/m2 in 12 Std. -
Fr, 14.05. 2:00 0.0 l/m2 in 6 Std. -
Do, 13.05. 20:00 0.1 l/m2 in 12 Std. Regen
Do, 13.05. 14:00 0.0 l/m2 in 6 Std. -
Do, 13.05. 8:00 0.0 l/m2 in 12 Std. -
Do, 13.05. 2:00 0.0 l/m2 in 6 Std. -
Ortszeit Niederschlagsmenge Niederschlagsart
Fr, 14.05. 23:00 0.1 l/m2 in 1 Std. Regen
Fr, 14.05. 22:50 keine Meldung -
Fr, 14.05. 22:40 keine Meldung -
Fr, 14.05. 22:30 0.1 l/m2 in 1 Std. Schneeregen
Fr, 14.05. 22:20 keine Meldung -
Fr, 14.05. 22:10 keine Meldung -
Fr, 14.05. 22:00 0.1 l/m2 in 1 Std. Regen
Fr, 14.05. 21:30 0.0 l/m2 in 1 Std. -
Fr, 14.05. 21:00 0.0 l/m2 in 1 Std. -
Fr, 14.05. 20:30 0.0 l/m2 in 1 Std. -
Fr, 14.05. 20:00 0.0 l/m2 in 1 Std. Regen
Ortszeit Stärke Spitze Richtung
km/h Bft. km/h Grad Sektor
Fr, 14.05. 20:00 20 4 39 300° NW
Fr, 14.05. 14:00 11 2 25 230° SW
Fr, 14.05. 8:00 4 1 4 330° NW
Fr, 14.05. 2:00 0 0 25 - -
Do, 13.05. 20:00 13 3 39 260° W
Do, 13.05. 14:00 17 3 26 230° SW
Do, 13.05. 8:00 4 1 4 310° NW
Do, 13.05. 2:00 0 0 7 - -
Ortszeit Stärke Spitze Richtung
km/h Bft. km/h Grad Sektor
Fr, 14.05. 23:00 4 1 11 40° NO
Fr, 14.05. 22:50 4 1 - 40° NO
Fr, 14.05. 22:40 6 1 - 60° NO
Fr, 14.05. 22:30 6 1 11 60° NO
Fr, 14.05. 22:20 6 1 - 60° NO
Fr, 14.05. 22:10 2 1 - 40° NO
Fr, 14.05. 22:00 4 1 11 110° O
Fr, 14.05. 21:30 4 1 11 220° SW
Fr, 14.05. 21:00 7 2 29 240° SW
Fr, 14.05. 20:30 14 3 29 260° W
Fr, 14.05. 20:00 20 4 33 300° NW
Ortszeit Untergrenze Bedeckung Gattung
total tief tief mittel hoch
Fr, 14.05. 20:00 1080 m 6/8 1/8 - - -
Fr, 14.05. 14:00 1500 m 3/8 3/8 - - -
Fr, 14.05. 8:00 - 0/8 0/8 - - -
Fr, 14.05. 2:00 5400 m 8/8 8/8 - - -
Do, 13.05. 20:00 6900 m 8/8 8/8 - - -
Do, 13.05. 14:00 1500 m 8/8 4/8 - - -
Do, 13.05. 8:00 4800 m 7/8 6/8 - - -
Do, 13.05. 2:00 3000 m 8/8 8/8 - - -
Ortszeit Bedeckungsgrad in Achtel und Wolkenuntergrenze
Fr, 14.05. 23:00 2(1800m) 8(2400m) 8(2700m)
Fr, 14.05. 22:50 2(1800m) 8(2400m) 8(2700m)
Fr, 14.05. 22:40 3(1800m) 8(2400m) 8(3300m)
Fr, 14.05. 22:30 1(2100m) 7(2700m) 7(3300m)
Fr, 14.05. 22:20 1(2100m) 7(2700m) 7(3300m)
Fr, 14.05. 22:10 1(1500m) 7(2700m) 7(3300m)
Fr, 14.05. 22:00 4(1800m) 8(3000m) 8(3900m)
Fr, 14.05. 21:30 7(2700m) 8(3600m) 8(2700m)
Fr, 14.05. 21:00 5(3000m) 7(3600m) 8(4500m)
Fr, 14.05. 20:30 5(3000m) 8(5400m) 8(6300m)
Fr, 14.05. 20:00 1(1080m) 6(3000m) 6(6000m)
Ortszeit Luftdruck NN (hPa) Tendenz (hPa in 3 Std.)
Fr, 14.05. 20:00 1010 + 0,8
Fr, 14.05. 14:00 1008 - 0,8
Fr, 14.05. 8:00 1009 + 0,3
Fr, 14.05. 2:00 1010 + 0,1
Do, 13.05. 20:00 1008 - 0,2
Do, 13.05. 14:00 1007 - 0,7
Do, 13.05. 8:00 1009 - 0,5
Do, 13.05. 2:00 1011 - 0,9
Ortszeit Luftdruck NN (hPa) Tendenz (hPa in 3 Std.)
Fr, 14.05. 23:00 1011 + 0,9
Fr, 14.05. 22:50 1011 keine Meldung
Fr, 14.05. 22:40 1011 keine Meldung
Fr, 14.05. 22:30 1011 + 1,1
Fr, 14.05. 22:20 1011 keine Meldung
Fr, 14.05. 22:10 1011 keine Meldung
Fr, 14.05. 22:00 1010 + 1,0
Fr, 14.05. 21:30 1010 + 0,9
Fr, 14.05. 21:00 1010 + 0,7
Fr, 14.05. 20:30 1010 + 0,9
Fr, 14.05. 20:00 1010 + 0,8
Ortszeit Schneehöhe (cm)
Fr, 14.05. 20:00 0
Fr, 14.05. 14:00 0
Fr, 14.05. 8:00 0
Fr, 14.05. 2:00 0
Do, 13.05. 20:00 0
Do, 13.05. 14:00 0
Do, 13.05. 8:00 0
Do, 13.05. 2:00 0
Ortszeit Schneehöhe (cm)
Fr, 14.05. 23:00 0
Fr, 14.05. 22:50 0
Fr, 14.05. 22:40 0
Fr, 14.05. 22:30 0
Fr, 14.05. 22:20 0
Fr, 14.05. 22:10 0
Fr, 14.05. 22:00 0
Fr, 14.05. 21:30 0
Fr, 14.05. 21:00 0
Fr, 14.05. 20:30 0
Fr, 14.05. 20:00 0
Link zu dieser Seite / Seite empfehlen

Das Wetter in ...